| time (UTC) | temp F | wind direction | speed knots | gust knots | rain 1hr in | rain 24hr in | rain mn in | humidity % | barometer mb |
| 20260504000153 | 92 | 298 | 3.5 | 8.7 | 0.00 | 0.00 | 0.00 | 36 | 1015.5 |
| 20260503235653 | 92 | 10 | 2.6 | 8.7 | 0.00 | 0.00 | 0.00 | 35 | 1015.6 |
| 20260503235154 | 92 | 355 | 2.6 | 9.6 | 0.00 | 0.00 | 0.00 | 35 | 1015.5 |
| 20260503234651 | 92 | 33 | 2.6 | 9.6 | 0.00 | 0.00 | 0.00 | 34 | 1015.5 |
| 20260503234149 | 92 | 0 | 2.6 | 7.0 | 0.00 | 0.00 | 0.00 | 36 | 1015.5 |
| 20260503233650 | 92 | 304 | 2.6 | 7.8 | 0.00 | 0.00 | 0.00 | 36 | 1015.7 |
| 20260503233144 | 92 | 355 | 1.7 | 7.8 | 0.00 | 0.00 | 0.00 | 37 | 1015.6 |
| 20260503232642 | 92 | 24 | 1.7 | 6.1 | 0.00 | 0.00 | 0.00 | 35 | 1015.7 |
| 20260503232138 | 92 | 5 | 1.7 | 7.0 | 0.00 | 0.00 | 0.00 | 36 | 1015.9 |
| 20260503231637 | 92 | 5 | 2.6 | 7.0 | 0.00 | 0.00 | 0.00 | 37 | 1015.9 |
| 20260503231138 | 92 | 350 | 2.6 | 7.8 | 0.00 | 0.00 | 0.00 | 37 | 1015.9 |
| 20260503230632 | 92 | 254 | 2.6 | 7.8 | 0.00 | 0.00 | 0.00 | 38 | 1015.9 |
| 20260503230131 | 92 | 300 | 1.7 | 7.8 | 0.00 | 0.00 | 0.00 | 37 | 1016.1 |
| 20260503225631 | 91 | 66 | 1.7 | 7.8 | 0.00 | 0.00 | 0.00 | 39 | 1016.2 |
| 20260503225131 | 91 | 302 | 1.7 | 6.1 | 0.00 | 0.00 | 0.00 | 38 | 1016.3 |
| 20260503224631 | 91 | 22 | 2.6 | 7.8 | 0.00 | 0.00 | 0.00 | 39 | 1016.4 |
| 20260503224131 | 91 | 109 | 2.6 | 7.8 | 0.00 | 0.00 | 0.00 | 38 | 1016.6 |
| 20260503223626 | 90 | 340 | 2.6 | 7.0 | 0.00 | 0.00 | 0.00 | 40 | 1016.6 |
| 20260503223124 | 90 | 336 | 2.6 | 7.0 | 0.00 | 0.00 | 0.00 | 41 | 1016.7 |
| 20260503222625 | 90 | 355 | 2.6 | 6.1 | 0.00 | 0.00 | 0.00 | 42 | 1016.8 |
| 20260503222125 | 89 | 257 | 2.6 | 7.0 | 0.00 | 0.00 | 0.00 | 43 | 1016.8 |
| 20260503221625 | 90 | 285 | 2.6 | 7.8 | 0.00 | 0.00 | 0.00 | 43 | 1016.9 |
| 20260503221125 | 90 | 350 | 1.7 | 6.1 | 0.00 | 0.00 | 0.00 | 44 | 1016.9 |
| 20260503220622 | 89 | 29 | 1.7 | 6.1 | 0.00 | 0.00 | 0.00 | 46 | 1016.9 |
| 20260503220120 | 89 | 304 | 1.7 | 4.3 | 0.00 | 0.00 | 0.00 | 47 | 1017.0 |
| 20260503215619 | 89 | 92 | 1.7 | 7.0 | 0.00 | 0.00 | 0.00 | 44 | 1016.9 |
| 20260503215119 | 88 | 9 | 2.6 | 7.8 | 0.00 | 0.00 | 0.00 | 44 | 1017.1 |
| 20260503214619 | 88 | 342 | 2.6 | 7.8 | 0.00 | 0.00 | 0.00 | 44 | 1017.2 |
| 20260503214120 | 87 | 40 | 2.6 | 6.1 | 0.00 | 0.00 | 0.00 | 46 | 1017.3 |
| 20260503213614 | 87 | 19 | 3.5 | 10.4 | 0.00 | 0.00 | 0.00 | 47 | 1017.5 |
| 20260503213114 | 87 | 284 | 2.6 | 10.4 | 0.00 | 0.00 | 0.00 | 47 | 1017.6 |
| 20260503212613 | 87 | 46 | 2.6 | 6.1 | 0.00 | 0.00 | 0.00 | 48 | 1017.7 |
| 20260503212113 | 87 | 67 | 2.6 | 7.0 | 0.00 | 0.00 | 0.00 | 47 | 1017.7 |
| 20260503211613 | 86 | 76 | 2.6 | 7.0 | 0.00 | 0.00 | 0.00 | 51 | 1017.6 |
| 20260503211112 | 86 | 327 | 2.6 | 7.0 | 0.00 | 0.00 | 0.00 | 50 | 1017.8 |
| 20260503210610 | 85 | 5 | 2.6 | 7.0 | 0.00 | 0.00 | 0.00 | 49 | 1017.9 |
| 20260503210112 | 85 | 44 | 2.6 | 7.0 | 0.00 | 0.00 | 0.00 | 53 | 1017.9 |
| 20260503205609 | 85 | 34 | 2.6 | 7.0 | 0.00 | 0.00 | 0.00 | 52 | 1018.0 |
| 20260503205110 | 85 | 283 | 2.6 | 7.0 | 0.00 | 0.00 | 0.00 | 52 | 1018.0 |
| 20260503204609 | 84 | 17 | 2.6 | 7.8 | 0.00 | 0.00 | 0.00 | 50 | 1018.2 |
| 20260503204108 | 84 | 9 | 1.7 | 7.8 | 0.00 | 0.00 | 0.00 | 52 | 1018.1 |
| 20260503203610 | 84 | 331 | 1.7 | 4.3 | 0.00 | 0.00 | 0.00 | 54 | 1018.2 |
| 20260503203104 | 83 | 48 | 1.7 | 4.3 | 0.00 | 0.00 | 0.00 | 54 | 1018.3 |
| 20260503202606 | 83 | 14 | 2.6 | 7.0 | 0.00 | 0.00 | 0.00 | 55 | 1018.4 |
| 20260503202104 | 82 | 119 | 2.6 | 7.0 | 0.00 | 0.00 | 0.00 | 53 | 1018.4 |
| 20260503201605 | 82 | 47 | 2.6 | 7.0 | 0.00 | 0.00 | 0.00 | 56 | 1018.4 |
| 20260503201104 | 82 | 290 | 2.6 | 7.0 | 0.00 | 0.00 | 0.00 | 54 | 1018.5 |
| 20260503200606 | 82 | 323 | 1.7 | 6.1 | 0.00 | 0.00 | 0.00 | 55 | 1018.7 |
| 20260503200100 | 81 | 347 | 1.7 | 6.1 | 0.00 | 0.00 | 0.00 | 56 | 1018.7 |
| 20260503195602 | 81 | 20 | 1.7 | 6.1 | 0.00 | 0.00 | 0.00 | 58 | 1018.9 |
| 20260503195102 | 80 | 74 | 1.7 | 6.1 | 0.00 | 0.00 | 0.00 | 58 | 1018.9 |
| 20260503194601 | 80 | 292 | 1.7 | 7.8 | 0.00 | 0.00 | 0.00 | 58 | 1019.0 |
| 20260503194101 | 79 | 291 | 2.6 | 7.8 | 0.00 | 0.00 | 0.00 | 58 | 1019.0 |
| 20260503193602 | 79 | 259 | 1.7 | 6.1 | 0.00 | 0.00 | 0.00 | 59 | 1019.2 |
| 20260503193056 | 79 | 275 | 1.7 | 6.1 | 0.00 | 0.00 | 0.00 | 60 | 1019.3 |
| 20260503192602 | 78 | 314 | 2.6 | 5.2 | 0.00 | 0.00 | 0.00 | 62 | 1019.3 |
| 20260503192058 | 77 | 13 | 1.7 | 5.2 | 0.00 | 0.00 | 0.00 | 63 | 1019.3 |
| 20260503191557 | 77 | 263 | 2.6 | 7.0 | 0.00 | 0.00 | 0.00 | 62 | 1019.3 |
| 20260503191057 | 77 | 288 | 1.7 | 7.0 | 0.00 | 0.00 | 0.00 | 63 | 1019.3 |
| 20260503190558 | 76 | 317 | 1.7 | 4.3 | 0.00 | 0.00 | 0.00 | 65 | 1019.4 |
| 20260503190056 | 76 | 5 | 2.6 | 6.1 | 0.00 | 0.00 | 0.00 | 65 | 1019.3 |
| 20260503185557 | 76 | 275 | 2.6 | 6.1 | 0.00 | 0.00 | 0.00 | 64 | 1019.4 |
| 20260503185056 | 76 | 286 | 1.7 | 3.5 | 0.00 | 0.00 | 0.00 | 64 | 1019.5 |
| 20260503184556 | 76 | 281 | 1.7 | 7.0 | 0.00 | 0.00 | 0.00 | 64 | 1019.5 |
| 20260503184056 | 76 | 259 | 1.7 | 7.0 | 0.00 | 0.00 | 0.00 | 64 | 1019.5 |
| 20260503183554 | 75 | 34 | 0.9 | 3.5 | 0.00 | 0.00 | 0.00 | 66 | 1019.5 |
| 20260503183056 | 75 | 230 | 0.9 | 2.6 | 0.00 | 0.00 | 0.00 | 66 | 1019.6 |
| 20260503182553 | 75 | 304 | 1.7 | 4.3 | 0.00 | 0.00 | 0.00 | 65 | 1019.6 |
| 20260503182052 | 75 | 57 | 1.7 | 4.3 | 0.00 | 0.00 | 0.00 | 66 | 1019.7 |
| 20260503181552 | 74 | 350 | 0.9 | 3.5 | 0.00 | 0.00 | 0.00 | 67 | 1019.6 |
| 20260503181053 | 74 | 31 | 0.9 | 4.3 | 0.00 | 0.00 | 0.00 | 68 | 1019.7 |
| 20260503180552 | 73 | 342 | 0.9 | 4.3 | 0.00 | 0.00 | 0.00 | 68 | 1019.7 |
| 20260503180052 | 73 | 53 | 1.7 | 4.3 | 0.00 | 0.00 | 0.00 | 69 | 1019.9 |
| 20260503175549 | 72 | 63 | 1.7 | 4.3 | 0.00 | 0.00 | 0.00 | 70 | 1019.9 |
| 20260503175046 | 72 | 57 | 1.7 | 4.3 | 0.00 | 0.00 | 0.00 | 69 | 1019.9 |
| 20260503174546 | 71 | 17 | 1.7 | 5.2 | 0.00 | 0.00 | 0.00 | 70 | 1020.0 |
| 20260503174046 | 71 | 306 | 1.7 | 5.2 | 0.00 | 0.00 | 0.00 | 70 | 1020.0 |
| 20260503173546 | 71 | 22 | 2.6 | 4.3 | 0.00 | 0.00 | 0.00 | 70 | 1020.0 |
| 20260503173042 | 70 | 340 | 2.6 | 5.2 | 0.00 | 0.00 | 0.00 | 72 | 1020.1 |
| 20260503172540 | 70 | 0 | 2.6 | 5.2 | 0.00 | 0.00 | 0.00 | 72 | 1020.2 |
| 20260503172040 | 70 | 338 | 2.6 | 4.3 | 0.00 | 0.00 | 0.00 | 71 | 1020.2 |
| 20260503171540 | 70 | 343 | 1.7 | 5.2 | 0.00 | 0.00 | 0.00 | 72 | 1020.1 |
| 20260503171040 | 70 | 335 | 1.7 | 5.2 | 0.00 | 0.00 | 0.00 | 72 | 1020.0 |
| 20260503170541 | 69 | 311 | 1.7 | 4.3 | 0.00 | 0.00 | 0.00 | 73 | 1020.0 |
| 20260503150517 | 56 | 355 | 0.0 | 0.9 | 0.00 | 0.00 | 0.00 | 91 | 1020.4 |
| 20260503130952 | 49 | 355 | 0.0 | 0.0 | 0.00 | 0.00 | 0.00 | 93 | 1020.0 |
| 20260503130453 | 49 | 355 | 0.0 | 0.0 | 0.00 | 0.00 | 0.00 | 92 | 1020.1 |
| 20260503110427 | 51 | 0 | 0.0 | 0.0 | 0.00 | 0.00 | 0.00 | 92 | 1020.3 |
| 20260503090408 | 54 | 355 | 0.0 | 0.9 | 0.00 | 0.00 | 0.00 | 91 | 1020.5 |
| 20260503081359 | 55 | 355 | 0.0 | 0.0 | 0.00 | 0.00 | 0.00 | 90 | 1020.7 |
| 20260503080901 | 55 | 355 | 0.0 | 0.0 | 0.00 | 0.00 | 0.00 | 90 | 1020.7 |
| 20260503080400 | 55 | 355 | 0.0 | 0.0 | 0.00 | 0.00 | 0.00 | 90 | 1020.7 |
| 20260503072845 | 56 | 0 | 0.0 | 0.0 | 0.00 | 0.00 | 0.00 | 90 | 1021.0 |
| 20260503072345 | 56 | 355 | 0.0 | 0.0 | 0.00 | 0.00 | 0.00 | 90 | 1021.1 |
| 20260503071841 | 57 | 355 | 0.0 | 0.0 | 0.00 | 0.00 | 0.00 | 89 | 1021.1 |
| 20260503071342 | 57 | 355 | 0.0 | 0.0 | 0.00 | 0.00 | 0.00 | 89 | 1021.2 |
| 20260503070840 | 57 | 355 | 0.0 | 0.0 | 0.00 | 0.00 | 0.00 | 89 | 1021.2 |
| 20260503070338 | 57 | 355 | 0.0 | 0.0 | 0.00 | 0.00 | 0.00 | 89 | 1021.2 |
| 20260503060329 | 60 | 355 | 0.0 | 1.7 | 0.00 | 0.00 | 0.00 | 87 | 1021.1 |
| 20260503054829 | 60 | 351 | 0.9 | 2.6 | 0.00 | 0.00 | 0.00 | 87 | 1021.1 |
| 20260503054329 | 60 | 355 | 0.9 | 2.6 | 0.00 | 0.00 | 0.00 | 87 | 1021.0 |
| 20260503053830 | 60 | 355 | 0.0 | 2.6 | 0.00 | 0.00 | 0.00 | 86 | 1020.8 |
| 20260503053323 | 60 | 355 | 0.0 | 0.9 | 0.00 | 0.00 | 0.00 | 86 | 1021.1 |
| 20260503052822 | 61 | 355 | 0.0 | 0.9 | 0.00 | 0.00 | 0.00 | 85 | 1021.0 |
| 20260503052319 | 61 | 0 | 0.0 | 1.7 | 0.00 | 0.00 | 0.00 | 85 | 1021.0 |
| 20260503051817 | 61 | 355 | 0.0 | 1.7 | 0.00 | 0.00 | 0.00 | 85 | 1021.0 |
| 20260503051318 | 61 | 0 | 0.0 | 1.7 | 0.00 | 0.00 | 0.00 | 85 | 1021.0 |
| 20260503050815 | 61 | 0 | 0.0 | 1.7 | 0.00 | 0.00 | 0.00 | 85 | 1020.9 |
| 20260503050313 | 62 | 0 | 0.0 | 1.7 | 0.00 | 0.00 | 0.00 | 84 | 1020.9 |
| 20260503045815 | 62 | 355 | 0.0 | 1.7 | 0.00 | 0.00 | 0.00 | 84 | 1020.9 |
| 20260503045314 | 62 | 0 | 0.0 | 0.0 | 0.00 | 0.00 | 0.00 | 84 | 1021.1 |
| 20260503044811 | 62 | 0 | 0.0 | 1.7 | 0.00 | 0.00 | 0.00 | 84 | 1021.1 |
| 20260503044311 | 62 | 0 | 0.0 | 1.7 | 0.00 | 0.00 | 0.00 | 83 | 1021.1 |
| 20260503043805 | 62 | 355 | 0.0 | 1.7 | 0.00 | 0.00 | 0.00 | 83 | 1021.1 |
| 20260503043304 | 63 | 355 | 0.0 | 1.7 | 0.00 | 0.00 | 0.00 | 83 | 1021.0 |
| 20260503042801 | 63 | 355 | 0.0 | 1.7 | 0.00 | 0.00 | 0.00 | 83 | 1021.0 |
| 20260503042300 | 63 | 355 | 0.0 | 1.7 | 0.00 | 0.00 | 0.00 | 83 | 1021.0 |
| 20260503041800 | 63 | 355 | 0.9 | 3.5 | 0.00 | 0.00 | 0.00 | 82 | 1020.8 |
| 20260503041258 | 63 | 0 | 0.9 | 3.5 | 0.00 | 0.00 | 0.00 | 82 | 1020.8 |
| 20260503040755 | 63 | 344 | 0.0 | 0.9 | 0.00 | 0.00 | 0.00 | 82 | 1020.7 |
| 20260503040256 | 64 | 344 | 0.0 | 0.9 | 0.00 | 0.00 | 0.00 | 81 | 1020.8 |
| 20260503035755 | 64 | 344 | 0.0 | 1.7 | 0.00 | 0.00 | 0.00 | 80 | 1020.9 |
| 20260503035254 | 64 | 0 | 0.9 | 2.6 | 0.00 | 0.00 | 0.00 | 80 | 1020.7 |
| 20260503034753 | 64 | 344 | 0.9 | 2.6 | 0.00 | 0.00 | 0.00 | 80 | 1020.7 |
| 20260503034249 | 64 | 344 | 0.0 | 2.6 | 0.00 | 0.00 | 0.00 | 79 | 1020.5 |
| 20260503033749 | 64 | 344 | 0.9 | 2.6 | 0.00 | 0.00 | 0.00 | 79 | 1020.6 |
| 20260503033247 | 65 | 344 | 0.9 | 2.6 | 0.00 | 0.00 | 0.00 | 79 | 1020.3 |
| 20260503032747 | 65 | 0 | 0.9 | 1.7 | 0.00 | 0.00 | 0.00 | 79 | 1020.1 |
| 20260503032247 | 65 | 339 | 0.9 | 3.5 | 0.00 | 0.00 | 0.00 | 79 | 1020.0 |
| 20260503031747 | 65 | 9 | 0.9 | 3.5 | 0.00 | 0.00 | 0.00 | 79 | 1020.1 |
| 20260503031242 | 65 | 22 | 0.9 | 2.6 | 0.00 | 0.00 | 0.00 | 79 | 1020.0 |
| 20260503030741 | 65 | 74 | 0.9 | 3.5 | 0.00 | 0.00 | 0.00 | 79 | 1020.1 |
| 20260503030241 | 65 | 42 | 1.7 | 4.3 | 0.00 | 0.00 | 0.00 | 79 | 1020.1 |
| 20260503025742 | 65 | 46 | 1.7 | 4.3 | 0.00 | 0.00 | 0.00 | 78 | 1020.1 |
| 20260503025241 | 65 | 52 | 1.7 | 4.3 | 0.00 | 0.00 | 0.00 | 78 | 1020.2 |
| 20260503024742 | 65 | 0 | 1.7 | 3.5 | 0.00 | 0.00 | 0.00 | 78 | 1019.9 |
| 20260503024236 | 65 | 305 | 1.7 | 3.5 | 0.00 | 0.00 | 0.00 | 78 | 1019.9 |
| 20260503023735 | 65 | 338 | 1.7 | 3.5 | 0.00 | 0.00 | 0.00 | 78 | 1019.7 |
| 20260503023235 | 65 | 271 | 1.7 | 3.5 | 0.00 | 0.00 | 0.00 | 78 | 1019.6 |
| 20260503022735 | 65 | 272 | 0.9 | 3.5 | 0.00 | 0.00 | 0.00 | 78 | 1019.7 |
| 20260503022234 | 65 | 338 | 0.9 | 3.5 | 0.00 | 0.00 | 0.00 | 78 | 1019.9 |
| 20260503021736 | 65 | 0 | 0.0 | 2.6 | 0.00 | 0.00 | 0.00 | 77 | 1019.9 |
| 20260503021230 | 66 | 115 | 0.0 | 0.0 | 0.00 | 0.00 | 0.00 | 77 | 1020.1 |
| 20260503020730 | 66 | 115 | 0.0 | 0.0 | 0.00 | 0.00 | 0.00 | 77 | 1020.4 |
| 20260503020229 | 66 | 114 | 0.9 | 3.5 | 0.00 | 0.00 | 0.00 | 76 | 1020.3 |
| 20260503015729 | 66 | 114 | 0.9 | 3.5 | 0.00 | 0.00 | 0.00 | 76 | 1020.6 |
| 20260503015229 | 66 | 114 | 0.9 | 3.5 | 0.00 | 0.00 | 0.00 | 76 | 1020.9 |
| 20260503014730 | 67 | 99 | 0.9 | 3.5 | 0.00 | 0.00 | 0.00 | 76 | 1021.1 |
| 20260503014225 | 67 | 142 | 2.6 | 7.8 | 0.00 | 0.00 | 0.00 | 75 | 1021.2 |
| 20260503013725 | 67 | 84 | 3.5 | 7.8 | 0.00 | 0.00 | 0.00 | 74 | 1021.1 |
| 20260503013226 | 68 | 92 | 3.5 | 8.7 | 0.00 | 0.00 | 0.00 | 74 | 1021.4 |
| 20260503012724 | 68 | 139 | 3.5 | 8.7 | 0.00 | 0.00 | 0.00 | 72 | 1021.3 |
| 20260503012223 | 69 | 192 | 2.6 | 7.8 | 0.00 | 0.00 | 0.00 | 72 | 1021.4 |
| 20260503011724 | 69 | 84 | 2.6 | 6.1 | 0.00 | 0.00 | 0.00 | 71 | 1021.1 |
| 20260503011216 | 69 | 109 | 1.7 | 5.2 | 0.00 | 0.00 | 0.00 | 71 | 1020.8 |
| 20260503010717 | 70 | 105 | 0.9 | 2.6 | 0.00 | 0.00 | 0.00 | 71 | 1020.7 |
| 20260503010216 | 70 | 113 | 0.9 | 3.5 | 0.00 | 0.00 | 0.00 | 70 | 1020.8 |
| 20260503005716 | 70 | 97 | 1.7 | 3.5 | 0.00 | 0.00 | 0.00 | 70 | 1020.7 |
| 20260503005217 | 70 | 102 | 0.9 | 5.2 | 0.00 | 0.00 | 0.00 | 69 | 1020.7 |
| 20260503004718 | 70 | 72 | 0.9 | 5.2 | 0.00 | 0.00 | 0.00 | 70 | 1020.6 |
| 20260503004214 | 70 | 103 | 0.9 | 5.2 | 0.00 | 0.00 | 0.00 | 68 | 1020.6 |
| 20260503003713 | 70 | 76 | 0.9 | 2.6 | 0.00 | 0.00 | 0.00 | 69 | 1020.6 |
| 20260503003214 | 69 | 342 | 0.9 | 3.5 | 0.00 | 0.00 | 0.00 | 69 | 1020.7 |
| 20260503002713 | 69 | 38 | 0.9 | 3.5 | 0.00 | 0.00 | 0.00 | 69 | 1020.7 |
| 20260503002211 | 69 | 78 | 0.9 | 1.7 | 0.00 | 0.00 | 0.00 | 69 | 1020.5 |
| 20260503001712 | 69 | 96 | 0.9 | 3.5 | 0.00 | 0.00 | 0.00 | 70 | 1020.6 |
| 20260503001208 | 69 | 96 | 0.9 | 4.3 | 0.00 | 0.00 | 0.00 | 69 | 1020.5 |
| 20260503000706 | 69 | 36 | 0.9 | 4.3 | 0.00 | 0.00 | 0.00 | 70 | 1020.5 |